Tracking 17884 objects as of 6-December-2016
HD Live streaming from Space Station
objects crossing your sky now

INTELSAT 501

Track INTELSAT 501 now!
INTELSAT 501 is classified as:


NORAD ID: 12474
Int'l Code: 1981-050A
Perigee: 36,156.5 km
Apogee: 36,236.2 km
Inclination: 15.2 °
Period: 1,456.7 minutes
Semi major axis: 42567 km
RCS: 3.981 m2 (large)
Launch date: May 23, 1981
Source: International Telecommunications Satellite Organization (ITSO)
Launch site: AIR FORCE EASTERN TEST RANGE (AFETR)
Your satellite tracking list
Your tracking list is empty





NASA's NSSDC Master Catalog

Two Line Element Set (TLE):
1 12474U 81050A   16339.69432310  .00000016  00000-0  00000+0 0  9998
2 12474  15.1552 354.3947 0009367 227.4051 324.8463  0.98852536103336
Source of the keplerian elements: AFSPC